Weather History for KBTM - February, 2013

Change the Weather History Date:

Friday, February 8, 2013

  Actual Average Record
Temperature  
Mean Temperature 19 °F 21 °F  
Max Temperature 33 °F 34 °F 55 °F (1907)
Min Temperature 5 °F 8 °F -51 °F (1936)
Degree Days  
Heating Degree Days 46 44  
Month to date heating degree days 330 357  
Since 1 July heating degree days 5503 5728  
Cooling Degree Days 0 0  
Month to date cooling degree days 0 0  
Year to date cooling degree days 0 0  
Moisture  
Dew Point 12 °F    
Average Humidity 73    
Maximum Humidity 91    
Minimum Humidity 54    
Precipitation  
Precipitation 0.00 in 0.01 in 0.30 in (1943)
Month to date precipitation 0.01 0.11  
Year to date precipitation 0.28 0.58  
Sea Level Pressure  
Sea Level Pressure 30.05 in    
Wind  
Wind Speed 4 mph (North)    
Max Wind Speed 12 mph    
Max Gust Speed 15 mph    
Visibility 10 miles    
Events      
T = Trace of Precipitation, MM = Missing Value Source: NWS Daily Summary

Daily Weather History Graph

Daily Weather History Graph

Search for Another Location

Airport or City:

Trip Planner

Search our weather history database for the weather conditions in past years. The results will help you decide how hot, cold, wet, or windy it might be!

Date:

Astronomy

Feb. 08, 2013 Rise Set
Actual Time 7:42 AM MST 5:46 PM MST
Civil Twilight 7:11 AM MST 6:17 PM MST
Nautical Twilight 6:36 AM MST 6:53 PM MST
Astronomical Twilight 6:01 AM MST 7:27 PM MST
Moon 6:16 AM MST (2/8) 4:22 PM MST (2/8)
Length of Visible Light 11h 06m
Length of Day
10h 03m
Waning Crescent, 3% of the Moon is Illuminated
Feb 8
Waning Crescent
Feb 10
New
Feb 17
First Quarter
Feb 25
Full
Mar 4
Last Quarter

Hourly Weather History & Observations

Time (MST) Temp. Windchill Dew Point Humidity Pressure Visibility Wind Dir Wind Speed Gust Speed Precip Events Conditions
12:53 AM 16.0 °F - 12.0 °F 84% 30.01 in 10.0 mi Calm Calm - N/A   Clear
1:53 AM 9.0 °F -2.2 °F 6.1 °F 88% 30.04 in 10.0 mi ESE 6.9 mph - N/A   Clear
2:53 AM 8.1 °F - 5.0 °F 87% 30.04 in 10.0 mi Calm Calm - N/A   Clear
3:53 AM 10.0 °F 3.6 °F 6.1 °F 84% 30.04 in 10.0 mi East 3.5 mph - N/A   Clear
4:53 AM 10.0 °F - 5.0 °F 80% 30.05 in 10.0 mi Calm Calm - N/A   Clear
5:53 AM 9.0 °F - 6.1 °F 88% 30.08 in 10.0 mi Calm Calm - N/A   Clear
6:53 AM 7.0 °F - 3.9 °F 87% 30.12 in 10.0 mi Calm Calm - N/A   Clear
7:53 AM 7.0 °F -1.7 °F 3.0 °F 84% 30.13 in 9.0 mi ESE 4.6 mph - N/A   Partly Cloudy
8:53 AM 10.0 °F - 6.1 °F 84% 30.13 in 10.0 mi Calm Calm - N/A   Clear
9:53 AM 12.9 °F - 9.0 °F 84% 30.12 in 9.0 mi Calm Calm - N/A   Clear
10:53 AM 17.1 °F - 12.0 °F 81% 30.10 in 10.0 mi Calm Calm - N/A   Scattered Clouds
11:53 AM 21.0 °F - 14.0 °F 74% 30.07 in 10.0 mi Calm Calm - N/A   Clear
12:53 PM 26.1 °F - 17.1 °F 69% 30.04 in 10.0 mi Calm Calm - N/A   Clear
1:53 PM 28.0 °F 21.7 °F 19.9 °F 72% 30.04 in 10.0 mi SSE 5.8 mph - N/A   Mostly Cloudy
2:53 PM 28.9 °F 21.1 °F 21.0 °F 72% 30.02 in 10.0 mi SE 8.1 mph - N/A   Scattered Clouds
3:53 PM 30.9 °F 26.2 °F 19.9 °F 64% 30.01 in 10.0 mi SSE 4.6 mph - N/A   Overcast
4:53 PM 32.0 °F 24.2 °F 17.1 °F 54% 30.00 in 10.0 mi WNW 9.2 mph - N/A   Overcast
5:53 PM 28.9 °F 21.1 °F 18.0 °F 64% 30.02 in 10.0 mi WNW 8.1 mph - N/A   Mostly Cloudy
6:53 PM 27.0 °F 18.7 °F 17.1 °F 66% 30.05 in 10.0 mi NW 8.1 mph - N/A   Partly Cloudy
7:53 PM 27.0 °F 18.0 °F 16.0 °F 63% 30.06 in 10.0 mi North 9.2 mph - N/A   Mostly Cloudy
8:53 PM 26.1 °F 18.4 °F 16.0 °F 66% 30.06 in 10.0 mi North 6.9 mph - N/A   Mostly Cloudy
9:53 PM 26.1 °F 19.4 °F 16.0 °F 66% 30.04 in 10.0 mi NW 5.8 mph - N/A   Overcast
10:53 PM 26.1 °F 18.4 °F 16.0 °F 66% 30.02 in 10.0 mi NNW 6.9 mph - N/A   Overcast
11:53 PM 26.1 °F 18.4 °F 16.0 °F 66% 30.01 in 10.0 mi NW 6.9 mph - N/A   Overcast